| time (UTC) | temp F | wind direction | speed MPH | gust MPH | rain 1hr in | rain 24hr in | rain mn in | humidity % | barometer mb |
| 20260506143312 | 52 | 347 | 1.0 | 1.0 | 0.00 | 0.00 | 0.00 | 76 | 1012.2 |
| 20260506142810 | 52 | 325 | 0.0 | 0.0 | 0.00 | 0.00 | 0.00 | 77 | 1011.7 |
| 20260506142308 | 52 | 292 | 0.0 | 0.0 | 0.00 | 0.00 | 0.00 | 76 | 1011.7 |
| 20260506141806 | 52 | 322 | 0.0 | 0.0 | 0.00 | 0.00 | 0.00 | 76 | 1011.8 |
| 20260506141304 | 51 | 304 | 0.0 | 0.0 | 0.00 | 0.00 | 0.00 | 77 | 1011.6 |
| 20260506140801 | 51 | 107 | 0.0 | 0.0 | 0.00 | 0.00 | 0.00 | 78 | 1011.6 |
| 20260506140258 | 51 | 354 | 0.0 | 0.0 | 0.00 | 0.00 | 0.00 | 79 | 1011.5 |
| 20260506135755 | 51 | 237 | 0.0 | 0.0 | 0.00 | 0.00 | 0.00 | 80 | 1011.8 |
| 20260506135251 | 51 | 302 | 0.0 | 0.0 | 0.00 | 0.00 | 0.00 | 79 | 1011.6 |
| 20260506134748 | 51 | 227 | 0.0 | 0.0 | 0.00 | 0.00 | 0.00 | 79 | 1011.6 |
| 20260506134244 | 51 | 227 | 0.0 | 0.0 | 0.00 | 0.00 | 0.00 | 80 | 1011.2 |
| 20260506133742 | 50 | 309 | 0.0 | 0.0 | 0.00 | 0.00 | 0.00 | 82 | 1011.3 |
| 20260506133238 | 51 | 276 | 0.0 | 0.0 | 0.00 | 0.00 | 0.00 | 83 | 1011.0 |
| 20260506132735 | 50 | 220 | 0.0 | 0.0 | 0.00 | 0.00 | 0.00 | 83 | 1011.0 |
| 20260506132232 | 50 | 282 | 0.0 | 0.0 | 0.00 | 0.00 | 0.00 | 84 | 1011.2 |
| 20260506131730 | 50 | 269 | 0.0 | 0.0 | 0.00 | 0.00 | 0.00 | 85 | 1011.2 |
| 20260506131226 | 49 | 259 | 0.0 | 0.0 | 0.00 | 0.00 | 0.00 | 84 | 1011.5 |
| 20260506130723 | 50 | 270 | 0.0 | 0.0 | 0.00 | 0.00 | 0.00 | 85 | 1011.2 |
| 20260506130220 | 49 | 282 | 0.0 | 0.0 | 0.00 | 0.00 | 0.00 | 84 | 1011.1 |
| 20260506125718 | 49 | 280 | 0.0 | 0.0 | 0.00 | 0.00 | 0.00 | 87 | 1011.1 |
| 20260506125216 | 49 | 283 | 0.0 | 0.0 | 0.00 | 0.00 | 0.00 | 87 | 1011.0 |
| 20260506124713 | 49 | 264 | 0.0 | 0.0 | 0.00 | 0.00 | 0.00 | 89 | 1010.9 |
| 20260506124211 | 48 | 288 | 0.0 | 0.0 | 0.00 | 0.00 | 0.00 | 89 | 1011.1 |
| 20260506123708 | 48 | 272 | 0.0 | 0.0 | 0.00 | 0.00 | 0.00 | 91 | 1010.9 |
| 20260506123207 | 48 | 249 | 0.0 | 0.0 | 0.00 | 0.00 | 0.00 | 94 | 1011.0 |
| 20260506122703 | 47 | 237 | 0.0 | 0.0 | 0.00 | 0.00 | 0.00 | 96 | 1010.7 |
| 20260506122201 | 47 | 252 | 0.0 | 0.0 | 0.00 | 0.00 | 0.00 | 99 | 1010.8 |
| 20260506121659 | 46 | 279 | 0.0 | 0.0 | 0.00 | 0.00 | 0.00 | 99 | 1010.7 |
| 20260506121155 | 46 | 251 | 0.0 | 0.0 | 0.00 | 0.00 | 0.00 | 99 | 1010.3 |
| 20260506120653 | 46 | 270 | 0.0 | 0.0 | 0.00 | 0.00 | 0.00 | 99 | 1010.3 |
| 20260506120150 | 46 | 243 | 0.0 | 0.0 | 0.00 | 0.00 | 0.00 | 99 | 1010.2 |
| 20260506115648 | 45 | 266 | 0.0 | 0.0 | 0.00 | 0.00 | 0.00 | 99 | 1010.0 |
| 20260506115146 | 45 | 226 | 0.0 | 0.0 | 0.00 | 0.00 | 0.00 | 99 | 1010.1 |
| 20260506114643 | 45 | 219 | 0.0 | 0.0 | 0.00 | 0.00 | 0.00 | 99 | 1009.9 |
| 20260506114141 | 45 | 202 | 0.0 | 0.0 | 0.00 | 0.00 | 0.00 | 99 | 1010.1 |
| 20260506113640 | 45 | 251 | 0.0 | 0.0 | 0.00 | 0.00 | 0.00 | 99 | 1010.2 |
| 20260506113136 | 45 | 220 | 0.0 | 0.0 | 0.00 | 0.00 | 0.00 | 99 | 1010.1 |
| 20260506112632 | 45 | 247 | 0.0 | 0.0 | 0.00 | 0.00 | 0.00 | 99 | 1009.9 |
| 20260506112130 | 45 | 182 | 0.0 | 0.0 | 0.00 | 0.00 | 0.00 | 99 | 1009.9 |
| 20260506111628 | 45 | 170 | 0.0 | 0.0 | 0.00 | 0.00 | 0.00 | 99 | 1009.7 |
| 20260506111125 | 45 | 170 | 0.0 | 0.0 | 0.00 | 0.00 | 0.00 | 99 | 1009.6 |
| 20260506110622 | 45 | 170 | 0.0 | 0.0 | 0.00 | 0.00 | 0.00 | 99 | 1009.6 |
| 20260506110120 | 45 | 170 | 0.0 | 0.0 | 0.00 | 0.00 | 0.00 | 99 | 1009.4 |
| 20260506105616 | 45 | 170 | 0.0 | 0.0 | 0.00 | 0.00 | 0.00 | 99 | 1009.1 |
| 20260506105113 | 45 | 170 | 0.0 | 0.0 | 0.00 | 0.00 | 0.00 | 99 | 1008.7 |
| 20260506104611 | 45 | 170 | 0.0 | 0.0 | 0.00 | 0.00 | 0.00 | 99 | 1008.5 |
| 20260506104108 | 45 | 171 | 0.0 | 0.0 | 0.00 | 0.00 | 0.00 | 99 | 1009.0 |
| 20260506103606 | 45 | 155 | 0.0 | 0.0 | 0.00 | 0.00 | 0.00 | 99 | 1009.0 |
| 20260506103102 | 45 | 155 | 0.0 | 0.0 | 0.00 | 0.00 | 0.00 | 99 | 1008.9 |
| 20260506102601 | 45 | 155 | 0.0 | 0.0 | 0.00 | 0.00 | 0.00 | 99 | 1008.9 |
| 20260506102058 | 45 | 155 | 0.0 | 0.0 | 0.00 | 0.00 | 0.00 | 99 | 1008.9 |
| 20260506101554 | 45 | 155 | 0.0 | 0.0 | 0.00 | 0.00 | 0.00 | 99 | 1008.7 |
| 20260506101051 | 45 | 155 | 0.0 | 0.0 | 0.00 | 0.00 | 0.00 | 99 | 1008.7 |
| 20260506100550 | 45 | 155 | 0.0 | 0.0 | 0.00 | 0.00 | 0.00 | 99 | 1008.9 |
| 20260506100047 | 45 | 155 | 0.0 | 0.0 | 0.00 | 0.00 | 0.00 | 99 | 1009.0 |
| 20260506095546 | 45 | 154 | 0.0 | 0.0 | 0.00 | 0.00 | 0.00 | 99 | 1008.8 |
| 20260506095042 | 45 | 154 | 0.0 | 0.0 | 0.00 | 0.00 | 0.00 | 99 | 1008.5 |
| 20260506094540 | 45 | 154 | 0.0 | 0.0 | 0.00 | 0.00 | 0.00 | 99 | 1008.3 |
| 20260506094038 | 45 | 154 | 0.0 | 0.0 | 0.00 | 0.00 | 0.00 | 99 | 1008.6 |
| 20260506093536 | 45 | 154 | 0.0 | 0.0 | 0.00 | 0.00 | 0.00 | 99 | 1008.5 |
| 20260506093033 | 45 | 154 | 0.0 | 0.0 | 0.00 | 0.00 | 0.00 | 99 | 1008.3 |
| 20260506092531 | 45 | 154 | 0.0 | 0.0 | 0.00 | 0.00 | 0.00 | 99 | 1008.4 |
| 20260506092027 | 45 | 154 | 0.0 | 0.0 | 0.00 | 0.00 | 0.00 | 99 | 1008.7 |
| 20260506091526 | 45 | 154 | 0.0 | 0.0 | 0.00 | 0.00 | 0.00 | 99 | 1008.0 |
| 20260506091022 | 45 | 154 | 0.0 | 0.0 | 0.00 | 0.00 | 0.00 | 99 | 1008.3 |
| 20260506090520 | 45 | 154 | 0.0 | 0.0 | 0.00 | 0.00 | 0.00 | 99 | 1008.1 |
| 20260506090016 | 45 | 154 | 0.0 | 0.0 | 0.00 | 0.00 | 0.00 | 99 | 1008.2 |
| 20260506085513 | 45 | 154 | 0.0 | 0.0 | 0.00 | 0.00 | 0.00 | 99 | 1007.9 |
| 20260506085009 | 45 | 154 | 0.0 | 0.0 | 0.00 | 0.00 | 0.00 | 99 | 1008.1 |
| 20260506084507 | 45 | 154 | 0.0 | 0.0 | 0.00 | 0.00 | 0.00 | 99 | 1008.1 |
| 20260506084002 | 45 | 154 | 0.0 | 0.0 | 0.00 | 0.00 | 0.00 | 99 | 1008.0 |
| 20260506083500 | 45 | 154 | 0.0 | 0.0 | 0.00 | 0.00 | 0.00 | 99 | 1008.2 |
| 20260506082957 | 45 | 158 | 0.0 | 0.0 | 0.00 | 0.00 | 0.00 | 99 | 1008.1 |
| 20260506082454 | 45 | 157 | 0.0 | 0.0 | 0.00 | 0.00 | 0.00 | 99 | 1008.0 |
| 20260506081949 | 45 | 156 | 0.0 | 0.0 | 0.00 | 0.00 | 0.00 | 99 | 1008.2 |
| 20260506081448 | 45 | 161 | 0.0 | 0.0 | 0.00 | 0.00 | 0.00 | 99 | 1008.2 |
| 20260506080945 | 45 | 151 | 0.0 | 0.0 | 0.00 | 0.00 | 0.00 | 99 | 1007.9 |
| 20260506080442 | 45 | 164 | 0.0 | 0.0 | 0.00 | 0.00 | 0.00 | 99 | 1008.1 |
| 20260506073426 | 45 | 145 | 0.0 | 0.0 | 0.00 | 0.00 | 0.00 | 99 | 1007.4 |
| 20260506072923 | 45 | 143 | 0.0 | 0.0 | 0.00 | 0.00 | 0.00 | 99 | 1007.5 |
| 20260506072420 | 45 | 143 | 0.0 | 0.0 | 0.00 | 0.00 | 0.00 | 99 | 1007.4 |
| 20260506071918 | 45 | 144 | 0.0 | 0.0 | 0.00 | 0.00 | 0.00 | 99 | 1007.7 |
| 20260506071416 | 45 | 139 | 0.0 | 0.0 | 0.00 | 0.00 | 0.00 | 99 | 1008.1 |
| 20260506070912 | 45 | 139 | 0.0 | 0.0 | 0.00 | 0.00 | 0.00 | 99 | 1008.2 |
| 20260506070409 | 45 | 139 | 0.0 | 0.0 | 0.00 | 0.00 | 0.00 | 99 | 1008.1 |
| 20260506062347 | 44 | 100 | 0.0 | 0.0 | 0.00 | 0.00 | 0.00 | 99 | 1007.4 |
| 20260506061843 | 44 | 109 | 0.0 | 0.0 | 0.00 | 0.00 | 0.00 | 99 | 1007.8 |
| 20260506061339 | 44 | 130 | 0.0 | 0.0 | 0.00 | 0.00 | 0.00 | 99 | 1007.8 |
| 20260506060837 | 44 | 131 | 0.0 | 0.0 | 0.00 | 0.00 | 0.00 | 99 | 1008.0 |
| 20260506060335 | 44 | 106 | 0.0 | 0.0 | 0.00 | 0.00 | 0.00 | 99 | 1008.1 |
| 20260506051307 | 45 | 73 | 0.0 | 0.0 | 0.00 | 0.00 | 0.00 | 99 | 1008.8 |
| 20260506050805 | 45 | 167 | 0.0 | 0.0 | 0.00 | 0.00 | 0.00 | 99 | 1009.3 |
| 20260506050302 | 45 | 174 | 0.0 | 0.0 | 0.00 | 0.00 | 0.00 | 99 | 1008.9 |
| 20260506044752 | 45 | 18 | 0.0 | 0.0 | 0.00 | 0.00 | 0.00 | 99 | 1008.3 |
| 20260506044250 | 45 | 100 | 0.0 | 0.0 | 0.00 | 0.00 | 0.00 | 99 | 1008.4 |
| 20260506043747 | 45 | 34 | 0.0 | 0.0 | 0.00 | 0.00 | 0.00 | 99 | 1008.2 |
| 20260506043244 | 46 | 102 | 0.0 | 0.0 | 0.00 | 0.00 | 0.00 | 99 | 1008.3 |
| 20260506042743 | 45 | 94 | 0.0 | 0.0 | 0.00 | 0.00 | 0.00 | 99 | 1008.2 |
| 20260506042242 | 45 | 32 | 0.0 | 0.0 | 0.00 | 0.00 | 0.00 | 99 | 1008.0 |
| 20260506041739 | 45 | 124 | 0.0 | 0.0 | 0.00 | 0.00 | 0.00 | 99 | 1007.9 |
| 20260506041236 | 45 | 133 | 0.0 | 0.0 | 0.00 | 0.00 | 0.00 | 99 | 1008.2 |
| 20260506040734 | 45 | 133 | 0.0 | 0.0 | 0.00 | 0.00 | 0.00 | 99 | 1008.1 |
| 20260506040231 | 45 | 120 | 0.0 | 0.0 | 0.00 | 0.00 | 0.00 | 99 | 1008.2 |
| 20260506035727 | 45 | 146 | 0.0 | 0.0 | 0.00 | 0.00 | 0.00 | 99 | 1008.4 |
| 20260506035224 | 45 | 137 | 0.0 | 0.0 | 0.00 | 0.00 | 0.00 | 99 | 1008.4 |
| 20260506034721 | 45 | 141 | 0.0 | 0.0 | 0.00 | 0.00 | 0.00 | 99 | 1008.2 |
| 20260506034218 | 45 | 140 | 0.0 | 0.0 | 0.00 | 0.00 | 0.00 | 99 | 1008.3 |
| 20260506033716 | 45 | 118 | 0.0 | 0.0 | 0.00 | 0.00 | 0.00 | 99 | 1008.3 |
| 20260506033212 | 45 | 135 | 0.0 | 0.0 | 0.00 | 0.00 | 0.00 | 99 | 1008.0 |
| 20260506032709 | 46 | 98 | 0.0 | 0.0 | 0.00 | 0.00 | 0.00 | 99 | 1008.3 |
| 20260506032206 | 45 | 39 | 0.0 | 0.0 | 0.00 | 0.00 | 0.00 | 99 | 1008.0 |
| 20260506031703 | 45 | 29 | 0.0 | 0.0 | 0.00 | 0.00 | 0.00 | 99 | 1007.9 |
| 20260506031200 | 45 | 46 | 0.0 | 0.0 | 0.00 | 0.00 | 0.00 | 99 | 1008.1 |
| 20260506030659 | 45 | 39 | 0.0 | 0.0 | 0.00 | 0.00 | 0.00 | 99 | 1008.1 |
| 20260506030155 | 45 | 81 | 0.0 | 0.0 | 0.00 | 0.00 | 0.00 | 99 | 1007.8 |
| 20260506025652 | 45 | 119 | 0.0 | 0.0 | 0.00 | 0.00 | 0.00 | 99 | 1007.7 |
| 20260506025148 | 45 | 54 | 0.0 | 0.0 | 0.00 | 0.00 | 0.00 | 99 | 1007.9 |
| 20260506024645 | 45 | 24 | 0.0 | 0.0 | 0.00 | 0.00 | 0.00 | 99 | 1007.7 |
| 20260506024142 | 46 | 98 | 0.0 | 0.0 | 0.00 | 0.00 | 0.00 | 99 | 1007.6 |
| 20260506023638 | 46 | 47 | 0.0 | 0.0 | 0.00 | 0.00 | 0.00 | 99 | 1007.7 |
| 20260506023136 | 46 | 59 | 0.0 | 0.0 | 0.00 | 0.00 | 0.00 | 99 | 1007.5 |
| 20260506022633 | 46 | 70 | 0.0 | 0.0 | 0.00 | 0.00 | 0.00 | 99 | 1008.0 |
| 20260506022130 | 46 | 83 | 0.0 | 0.0 | 0.00 | 0.00 | 0.00 | 99 | 1007.9 |
| 20260506021628 | 46 | 34 | 0.0 | 0.0 | 0.00 | 0.00 | 0.00 | 99 | 1008.1 |
| 20260506021125 | 46 | 110 | 0.0 | 0.0 | 0.00 | 0.00 | 0.00 | 99 | 1007.9 |
| 20260506020622 | 46 | 125 | 0.0 | 0.0 | 0.00 | 0.00 | 0.00 | 99 | 1008.0 |
| 20260506020120 | 46 | 82 | 0.0 | 0.0 | 0.00 | 0.00 | 0.00 | 99 | 1007.6 |
| 20260506015617 | 46 | 36 | 0.0 | 0.0 | 0.00 | 0.00 | 0.00 | 99 | 1007.4 |
| 20260506015114 | 46 | 94 | 0.0 | 0.0 | 0.00 | 0.00 | 0.00 | 99 | 1007.1 |
| 20260506014612 | 46 | 62 | 0.0 | 0.0 | 0.00 | 0.00 | 0.00 | 99 | 1007.2 |
| 20260506014107 | 46 | 87 | 0.0 | 0.0 | 0.00 | 0.00 | 0.00 | 99 | 1007.0 |
| 20260506013605 | 46 | 85 | 0.0 | 0.0 | 0.00 | 0.00 | 0.00 | 99 | 1007.0 |
| 20260506013101 | 46 | 58 | 0.0 | 0.0 | 0.00 | 0.00 | 0.00 | 99 | 1006.8 |
| 20260506012557 | 46 | 89 | 0.0 | 0.0 | 0.00 | 0.00 | 0.00 | 99 | 1006.8 |
| 20260506012054 | 46 | 76 | 0.0 | 0.0 | 0.00 | 0.00 | 0.00 | 99 | 1006.9 |
| 20260506011552 | 46 | 102 | 0.0 | 0.0 | 0.00 | 0.00 | 0.00 | 99 | 1006.8 |
| 20260506011048 | 46 | 48 | 0.0 | 0.0 | 0.00 | 0.00 | 0.00 | 99 | 1006.5 |
| 20260506010548 | 46 | 72 | 0.0 | 0.0 | 0.00 | 0.00 | 0.00 | 99 | 1006.4 |
| 20260506010044 | 46 | 59 | 0.0 | 0.0 | 0.00 | 0.00 | 0.00 | 99 | 1007.1 |
| 20260506005541 | 46 | 117 | 0.0 | 0.0 | 0.00 | 0.00 | 0.00 | 99 | 1007.1 |
| 20260506005037 | 46 | 108 | 0.0 | 0.0 | 0.00 | 0.00 | 0.00 | 99 | 1007.1 |
| 20260506004535 | 46 | 101 | 0.0 | 0.0 | 0.00 | 0.00 | 0.00 | 99 | 1007.2 |
| 20260506004031 | 46 | 135 | 0.0 | 0.0 | 0.00 | 0.00 | 0.00 | 99 | 1007.1 |
| 20260506003528 | 46 | 110 | 0.0 | 0.0 | 0.00 | 0.00 | 0.00 | 99 | 1007.0 |
| 20260506003024 | 46 | 143 | 0.0 | 0.0 | 0.00 | 0.00 | 0.00 | 99 | 1007.1 |
| 20260506002520 | 46 | 159 | 0.0 | 0.0 | 0.00 | 0.00 | 0.00 | 99 | 1007.3 |
| 20260506002016 | 46 | 124 | 0.0 | 0.0 | 0.00 | 0.00 | 0.00 | 99 | 1007.1 |
| 20260506001513 | 46 | 127 | 0.0 | 0.0 | 0.00 | 0.00 | 0.00 | 99 | 1006.9 |
| 20260506001010 | 46 | 134 | 0.0 | 0.0 | 0.00 | 0.00 | 0.00 | 99 | 1006.7 |
| 20260506000508 | 46 | 135 | 0.0 | 0.0 | 0.00 | 0.00 | 0.00 | 99 | 1006.7 |
| 20260506000005 | 46 | 129 | 0.0 | 0.0 | 0.00 | 0.00 | 0.00 | 99 | 1007.0 |
| 20260505235503 | 46 | 134 | 0.0 | 0.0 | 0.00 | 0.00 | 0.00 | 99 | 1007.3 |
| 20260505234959 | 46 | 128 | 0.0 | 0.0 | 0.00 | 0.00 | 0.00 | 99 | 1007.2 |
| 20260505234456 | 46 | 87 | 0.0 | 0.0 | 0.00 | 0.00 | 0.00 | 99 | 1007.2 |
| 20260505233953 | 46 | 88 | 0.0 | 0.0 | 0.00 | 0.00 | 0.00 | 99 | 1007.0 |
| 20260505233450 | 46 | 77 | 0.0 | 0.0 | 0.00 | 0.00 | 0.00 | 99 | 1006.9 |
| 20260505232948 | 46 | 99 | 0.0 | 0.0 | 0.00 | 0.00 | 0.00 | 99 | 1006.9 |
| 20260505232446 | 46 | 31 | 0.0 | 0.0 | 0.00 | 0.00 | 0.00 | 99 | 1006.9 |
| 20260505231942 | 46 | 68 | 0.0 | 0.0 | 0.00 | 0.00 | 0.00 | 99 | 1006.9 |
| 20260505231439 | 46 | 80 | 0.0 | 0.0 | 0.00 | 0.00 | 0.00 | 99 | 1007.0 |
| 20260505230938 | 46 | 117 | 0.0 | 0.0 | 0.00 | 0.00 | 0.00 | 99 | 1007.2 |
| 20260505230435 | 46 | 114 | 0.0 | 0.0 | 0.00 | 0.00 | 0.00 | 99 | 1007.2 |
| 20260505225931 | 46 | 94 | 0.0 | 0.0 | 0.00 | 0.00 | 0.00 | 99 | 1007.2 |
| 20260505225429 | 46 | 96 | 0.0 | 0.0 | 0.00 | 0.00 | 0.00 | 99 | 1007.4 |
| 20260505224924 | 46 | 85 | 0.0 | 0.0 | 0.00 | 0.00 | 0.00 | 99 | 1007.4 |
| 20260505224422 | 46 | 69 | 0.0 | 0.0 | 0.00 | 0.00 | 0.00 | 99 | 1007.3 |
| 20260505223919 | 46 | 53 | 0.0 | 0.0 | 0.00 | 0.00 | 0.00 | 99 | 1007.4 |
| 20260505223416 | 46 | 98 | 0.0 | 0.0 | 0.00 | 0.00 | 0.00 | 99 | 1007.2 |
| 20260505222912 | 46 | 54 | 0.0 | 0.0 | 0.00 | 0.00 | 0.00 | 99 | 1007.3 |
| 20260505222408 | 46 | 80 | 0.0 | 0.0 | 0.00 | 0.00 | 0.00 | 99 | 1007.4 |
| 20260505221904 | 46 | 48 | 0.0 | 0.0 | 0.00 | 0.00 | 0.00 | 99 | 1007.3 |
| 20260505221402 | 46 | 0 | 0.0 | 0.0 | 0.00 | 0.00 | 0.00 | 99 | 1007.8 |
| 20260505220859 | 46 | 45 | 0.0 | 0.0 | 0.00 | 0.00 | 0.00 | 99 | 1007.7 |
| 20260505220355 | 46 | 10 | 0.0 | 0.0 | 0.00 | 0.00 | 0.00 | 99 | 1007.4 |
| 20260505215853 | 46 | 9 | 0.0 | 1.0 | 0.00 | 0.00 | 0.00 | 99 | 1007.6 |
| 20260505215351 | 46 | 355 | 1.0 | 1.0 | 0.00 | 0.00 | 0.00 | 99 | 1007.5 |
| 20260505214849 | 47 | 342 | 1.0 | 2.0 | 0.00 | 0.00 | 0.00 | 99 | 1007.6 |
| 20260505214346 | 46 | 319 | 0.0 | 1.0 | 0.00 | 0.00 | 0.00 | 99 | 1007.5 |
| 20260505213843 | 46 | 11 | 0.0 | 1.0 | 0.00 | 0.00 | 0.00 | 99 | 1007.3 |
| 20260505213341 | 46 | 357 | 1.0 | 2.0 | 0.00 | 0.00 | 0.00 | 99 | 1007.4 |
| 20260505212837 | 47 | 5 | 1.0 | 2.0 | 0.00 | 0.00 | 0.00 | 99 | 1007.5 |
| 20260505212334 | 47 | 322 | 2.0 | 2.0 | 0.00 | 0.00 | 0.00 | 99 | 1007.2 |
| 20260505211830 | 47 | 349 | 2.0 | 3.0 | 0.00 | 0.00 | 0.00 | 99 | 1007.2 |
| 20260505211328 | 47 | 333 | 2.0 | 2.0 | 0.00 | 0.00 | 0.00 | 99 | 1007.4 |
| 20260505210824 | 48 | 303 | 2.0 | 2.0 | 0.00 | 0.00 | 0.00 | 99 | 1007.2 |
| 20260505210321 | 48 | 308 | 1.0 | 2.0 | 0.00 | 0.00 | 0.00 | 99 | 1007.3 |
| 20260505205818 | 48 | 352 | 1.0 | 2.0 | 0.00 | 0.00 | 0.00 | 99 | 1007.2 |
| 20260505205316 | 48 | 320 | 1.0 | 2.0 | 0.00 | 0.00 | 0.00 | 99 | 1007.3 |
| 20260505204813 | 48 | 345 | 1.0 | 2.0 | 0.00 | 0.00 | 0.00 | 99 | 1007.2 |
| 20260505204311 | 48 | 320 | 1.0 | 2.0 | 0.00 | 0.00 | 0.00 | 99 | 1007.3 |
| 20260505203808 | 48 | 313 | 2.0 | 3.0 | 0.00 | 0.00 | 0.00 | 99 | 1007.2 |
| 20260505203305 | 48 | 318 | 1.0 | 2.0 | 0.00 | 0.00 | 0.00 | 99 | 1007.3 |
| 20260505202801 | 48 | 309 | 2.0 | 2.0 | 0.00 | 0.00 | 0.00 | 99 | 1007.0 |
| 20260505202257 | 48 | 335 | 2.0 | 3.0 | 0.00 | 0.00 | 0.00 | 99 | 1007.2 |
| 20260505201754 | 48 | 323 | 1.0 | 2.0 | 0.00 | 0.00 | 0.00 | 99 | 1007.1 |
| 20260505201251 | 48 | 303 | 2.0 | 3.0 | 0.00 | 0.00 | 0.00 | 99 | 1007.0 |
| 20260505200749 | 49 | 344 | 2.0 | 2.0 | 0.00 | 0.00 | 0.00 | 99 | 1007.0 |
| 20260505200246 | 49 | 337 | 2.0 | 2.0 | 0.00 | 0.00 | 0.00 | 99 | 1006.8 |
| 20260505195741 | 49 | 328 | 2.0 | 2.0 | 0.00 | 0.00 | 0.00 | 99 | 1006.8 |
| 20260505195238 | 49 | 4 | 1.0 | 2.0 | 0.00 | 0.00 | 0.00 | 99 | 1006.8 |
| 20260505194730 | 49 | 334 | 1.0 | 2.0 | 0.00 | 0.00 | 0.00 | 99 | 1006.5 |
| 20260505194227 | 49 | 79 | 0.0 | 0.0 | 0.00 | 0.00 | 0.00 | 99 | 1006.6 |
| 20260505193722 | 49 | 328 | 1.0 | 1.0 | 0.00 | 0.00 | 0.00 | 99 | 1006.6 |
| 20260505193220 | 49 | 359 | 0.0 | 0.0 | 0.00 | 0.00 | 0.00 | 99 | 1006.6 |
| 20260505192719 | 50 | 325 | 1.0 | 2.0 | 0.00 | 0.00 | 0.00 | 99 | 1006.7 |
| 20260505192216 | 50 | 335 | 0.0 | 1.0 | 0.00 | 0.00 | 0.00 | 99 | 1006.6 |
| 20260505191714 | 50 | 346 | 0.0 | 0.0 | 0.00 | 0.00 | 0.00 | 99 | 1006.8 |
| 20260505191212 | 50 | 32 | 0.0 | 0.0 | 0.00 | 0.00 | 0.00 | 98 | 1006.5 |
| 20260505190708 | 50 | 347 | 0.0 | 0.0 | 0.00 | 0.00 | 0.00 | 98 | 1006.7 |
| 20260505190207 | 50 | 26 | 0.0 | 0.0 | 0.00 | 0.00 | 0.00 | 99 | 1006.5 |
| 20260505185705 | 50 | 15 | 0.0 | 0.0 | 0.00 | 0.00 | 0.00 | 99 | 1006.3 |
| 20260505185201 | 50 | 15 | 0.0 | 0.0 | 0.00 | 0.00 | 0.00 | 99 | 1006.5 |
| 20260505184657 | 50 | 89 | 0.0 | 0.0 | 0.00 | 0.00 | 0.00 | 99 | 1006.7 |
| 20260505184155 | 50 | 41 | 0.0 | 0.0 | 0.00 | 0.00 | 0.00 | 99 | 1006.7 |
| 20260505183651 | 49 | 71 | 0.0 | 0.0 | 0.00 | 0.00 | 0.00 | 98 | 1006.9 |
| 20260505183149 | 49 | 49 | 0.0 | 0.0 | 0.00 | 0.00 | 0.00 | 98 | 1006.8 |
| 20260505182645 | 49 | 24 | 0.0 | 0.0 | 0.00 | 0.00 | 0.00 | 97 | 1007.0 |
| 20260505182142 | 49 | 48 | 0.0 | 0.0 | 0.00 | 0.00 | 0.00 | 97 | 1006.9 |
| 20260505181638 | 49 | 33 | 0.0 | 0.0 | 0.00 | 0.00 | 0.00 | 97 | 1007.1 |
| 20260505181136 | 49 | 80 | 0.0 | 0.0 | 0.00 | 0.00 | 0.00 | 97 | 1007.2 |
| 20260505180632 | 49 | 71 | 0.0 | 0.0 | 0.00 | 0.00 | 0.00 | 97 | 1007.1 |
| 20260505180130 | 49 | 118 | 0.0 | 0.0 | 0.00 | 0.00 | 0.00 | 97 | 1007.1 |
| 20260505175625 | 49 | 126 | 0.0 | 0.0 | 0.00 | 0.00 | 0.00 | 96 | 1007.2 |
| 20260505175122 | 50 | 130 | 0.0 | 0.0 | 0.00 | 0.00 | 0.00 | 96 | 1007.3 |
| 20260505174618 | 50 | 133 | 0.0 | 0.0 | 0.00 | 0.00 | 0.00 | 96 | 1007.3 |
| 20260505174115 | 50 | 124 | 0.0 | 0.0 | 0.00 | 0.00 | 0.00 | 95 | 1007.2 |
| 20260505173612 | 50 | 132 | 0.0 | 0.0 | 0.00 | 0.00 | 0.00 | 94 | 1007.2 |
| 20260505173108 | 50 | 148 | 0.0 | 0.0 | 0.00 | 0.00 | 0.00 | 94 | 1007.3 |
| 20260505172606 | 50 | 96 | 0.0 | 0.0 | 0.00 | 0.00 | 0.00 | 94 | 1007.2 |
| 20260505172103 | 50 | 151 | 0.0 | 0.0 | 0.00 | 0.00 | 0.00 | 93 | 1007.6 |
| 20260505171557 | 50 | 134 | 0.0 | 0.0 | 0.00 | 0.00 | 0.00 | 93 | 1007.3 |
| 20260505171054 | 50 | 156 | 0.0 | 0.0 | 0.00 | 0.00 | 0.00 | 92 | 1007.2 |
| 20260505170545 | 50 | 169 | 0.0 | 0.0 | 0.00 | 0.00 | 0.00 | 92 | 1007.4 |
| 20260505170041 | 50 | 139 | 0.0 | 0.0 | 0.00 | 0.00 | 0.00 | 92 | 1007.2 |
| 20260505165531 | 50 | 114 | 0.0 | 0.0 | 0.00 | 0.00 | 0.00 | 91 | 1007.1 |
| 20260505165027 | 50 | 357 | 0.0 | 0.0 | 0.00 | 0.00 | 0.00 | 90 | 1007.2 |
| 20260505164523 | 50 | 28 | 0.0 | 0.0 | 0.00 | 0.00 | 0.00 | 89 | 1007.2 |
| 20260505164021 | 50 | 75 | 0.0 | 0.0 | 0.00 | 0.00 | 0.00 | 87 | 1007.4 |
| 20260505163519 | 50 | 15 | 0.0 | 0.0 | 0.00 | 0.00 | 0.00 | 87 | 1007.5 |
| 20260505163015 | 50 | 13 | 0.0 | 0.0 | 0.00 | 0.00 | 0.00 | 88 | 1007.6 |
| 20260505162509 | 51 | 89 | 0.0 | 0.0 | 0.00 | 0.00 | 0.00 | 91 | 1007.4 |
| 20260505162006 | 51 | 67 | 0.0 | 0.0 | 0.00 | 0.00 | 0.00 | 93 | 1007.6 |
| 20260505161502 | 51 | 35 | 0.0 | 0.0 | 0.00 | 0.00 | 0.00 | 94 | 1007.3 |
| 20260505160959 | 52 | 346 | 0.0 | 0.0 | 0.00 | 0.00 | 0.00 | 94 | 1007.6 |
| 20260505160457 | 51 | 334 | 0.0 | 0.0 | 0.00 | 0.00 | 0.00 | 94 | 1007.6 |
| 20260505152928 | 52 | 322 | 3.0 | 3.0 | 0.00 | 0.00 | 0.00 | 95 | 1007.2 |
| 20260505152420 | 52 | 327 | 3.0 | 3.0 | 0.00 | 0.00 | 0.00 | 96 | 1007.2 |
| 20260505151919 | 54 | 306 | 2.0 | 3.0 | 0.00 | 0.00 | 0.00 | 97 | 1007.4 |
| 20260505151416 | 54 | 280 | 3.0 | 3.0 | 0.00 | 0.00 | 0.00 | 99 | 1007.4 |
| 20260505150913 | 55 | 268 | 2.0 | 2.0 | 0.00 | 0.00 | 0.00 | 99 | 1007.3 |
| 20260505150410 | 56 | 236 | 0.0 | 0.0 | 0.00 | 0.00 | 0.00 | 99 | 1007.2 |